Kezdőlap
METAR-TAF:

METAR-TAF

Repülőterek :

Charles City, Iowa, Amerikai Egyesült Államok

földrajzi szélesség: 43-04N, földrajzi hosszúság: 092-37W, magasság: 343 m

Jelenlegi meteorológiai megfigyelések

A jelentés 9 perccel ezelõtt készült, 13:15 UTC
Szélcsend
Hőmérséklet 23°C
Páratartalom 100%
Légköri nyomás 1018 hPa
Látótávolság: 11.3 km
Derült ég

METAR: KCCY 281315Z AUTO 00000KT 7SM CLR 23/23 A3006 RMK AO2

Idő: 08:24 (13:24 UTC)


TAF: hiányzik

Meteorológiai megfigyelések és előrejelzések több, mint 4000 repülőtéren (METAR és TAF jelentéseket).

A térképen piros és sárga pontok jelzik az elérhető meteorológiai állomásokat.

Mozgassa az egeret a pont fölött, hogy megjelenjen az állomás neve.

Azután kattintson az időjárási megfigyelések és előrejelzések megtekintéséhez.

A térkép megváltoztatása: kattintson a fekete keresztel jelölt zöld gombra ráközelítéshez, a vonallal jelölt zöld gombra távolításhoz, vagy a zöld nyilakra a szomszédos térképek eléréséhez.


METAR-TAF: